Dewpoint
6 5 7 7 3 -4 2 5 4 7 6 8 7 8 9 5 5 8 8 5 5 5 5 7 8 8 6 5 4 6 3 3 4 3 1 -1 -1 -1 -1 2 2 1 1 2
5 5 6 7 3 -3 1 4 7 7 7 8 8 8 8 8 9 8 7 5 5 6 7 9 7 7 5 5 5 5 4 5 7 6 4 2 3 1 -1 1 1 3 3 2
5 5 6 7 6 -3 -1 4 4 6 6 6 6 6 8 9 8 7 6 7 6 6 6 6 7 7 5 4 4 4 2 4 4 5 5 4 5 4 1 1 3 2 2 1
4 5 6 6 7 -3 -0 3 1 3 4 4 4 4 6 8 8 7 6 7 7 6 7 6 7 6 4 3 2 1 0 3 2 1 1 3 3 4 3 2 1 2 0 2
4 5 5 6 7 -3 1 3 2 2 2 1 2 2 4 5 4 7 8 7 5 5 5 5 6 5 5 4 2 1 -0 2 -1 -2 -1 -2 -2 -1 3 3 3 2 2 1
4 5 5 6 7 -3 1 2 2 1 1 0 1 2 3 4 2 1 4 3 3 3 -0 -1 1 2 1 2 2 2 -1 -1 -2 -1 0 -0 -0 -0 -2 -3 -3 -2 -2 -4
4 5 5 6 7 -2 0 2 3 -0 1 1 1 2 1 3 1 2 1 0 0 -1 -3 -2 -1 -2 -0 1 1 -1 0 0 0 0 1 3 -2 -1 -1 -2 -1 -3 1 1
4 4 5 6 7 1 -1 1 3 0 1 1 0 -0 -0 -1 -2 -1 -1 -1 -1 -3 -3 0 2 3 1 1 2 0 -1 1 3 4 3 1 2 0 -0 1 3 1 2 1
3 4 5 5 7 6 0 3 3 1 1 1 -0 -1 -1 -1 -1 -2 -3 -2 -2 -2 1 3 3 4 3 4 3 -1 -1 -1 2 3 5 5 1 -0 -1 -3 5 1 2 2
2 4 5 6 6 7 4 5 5 4 0 2 -1 -1 -1 -2 -1 -0 -2 -3 -2 -0 3 5 4 5 2 5 5 2 1 1 3 4 4 3 -0 -1 -1 3 -0 2 1 1
2 4 5 5 6 7 7 6 6 6 2 3 2 1 -0 0 0 3 -1 2 1 1 4 4 4 4 2 3 2 1 1 2 3 3 4 4 -0 1 2 0 1 -0 -0 -0
1 2 4 5 6 6 7 7 6 6 5 3 3 2 2 2 3 1 -1 3 1 1 3 2 2 3 1 2 4 1 4 2 3 2 2 -0 0 0 0 0 0 0 0 0
1 1 4 5 6 6 7 7 6 6 6 5 5 5 3 3 3 1 3 2 2 3 1 1 2 3 1 3 2 2 1 0 2 2 1 1 0 0 0 1 1 1 1 1
0 -0 3 4 5 6 6 7 7 6 5 5 5 6 6 5 4 4 4 3 2 2 3 3 3 4 1 2 2 2 1 1 2 2 1 1 0 1 1 1 1 1 1 1
-1 -1 1 3 5 5 6 7 7 6 5 6 5 5 4 5 5 4 4 3 2 3 3 3 5 4 3 2 2 4 2 2 3 3 1 0 1 0 0 0 1 1 1 1
-2 -0 1 3 5 5 6 5 6 5 3 4 4 4 5 5 5 3 3 3 4 4 3 3 4 3 2 3 2 0 1 2 1 1 1 0 -0 0 -1 -1 -1 -1 -1 -0
-2 2 3 4 5 5 3 3 4 5 3 1 4 3 4 5 5 5 4 4 4 4 3 3 3 3 2 2 3 0 1 1 1 0 0 0 0 -0 -0 -0 -1 -2 -2 -1
1 3 3 4 3 3 2 3 4 4 2 1 2 3 3 4 4 4 5 4 4 4 4 4 3 3 3 2 1 1 1 1 0 0 0 0 -0 -0 -1 -4 -8 -8 -6 -3
3 3 3 3 3 2 2 3 5 4 2 3 2 3 3 3 3 4 3 3 4 4 4 3 2 3 3 1 1 1 1 1 -0 -0 0 -0 -0 -5 -9 -9 -8 -7 -4 -2
2 2 1 2 2 2 3 4 4 3 4 3 2 2 3 3 3 2 2 2 3 3 3 3 3 4 2 1 1 1 0 1 -1 -1 -0 -1 -8 -9 -8 -8 -6 -4 -2 -2
2 2 1 2 3 3 1 2 2 2 0 2 2 2 2 2 2 2 1 1 1 2 0 3 2 -1 -2 -2 -2 -1 0 1 -0 -4 -9 -9 -8 -8 -8 -6 -4 -3 -3 -2
2 1 2 2 1 0 -1 1 0 1 -0 1 2 2 2 2 1 1 0 1 0 -1 -0 1 -1 -3 -2 -3 -2 -2 -3 -6 -10 -8 -7 -6 -7 -8 -9 -7 -5 -3 -2 -2
2 2 2 0 0 0 0 0 0 0 -1 1 1 1 1 1 1 0 0 1 -1 -1 1 -0 -3 -4 -2 -3 -5 -8 -11 -11 -9 -7 -6 -6 -7 -8 -10 -8 -4 -3 -3 -4
0 -0 0 0 -0 -2 -3 -4 -3 -3 0 1 1 0 1 1 0 1 1 0 -0 0 -1 -3 -5 -4 -4 -4 -6 -10 -10 -10 -9 -8 -6 -5 -5 -6 -9 -10 -6 -5 -7 -13
-0 -0 1 -1 -5 -4 -4 -3 -1 -0 1 1 -1 -1 -1 -1 -0 -1 0 0 0 -2 -4 -5 -5 -4 -5 -7 -8 -8 -8 -8 -9 -9 -8 -5 -4 -5 -6 -8 -7 -7 -12 -20
-1 -1 -4 -3 -4 -3 -3 -3 -2 -0 -0 -1 -3 -2 -2 -1 -1 0 -0 -1 -3 -4 -6 -5 -5 -6 -7 -7 -8 -7 -6 -6 -6 -7 -10 -7 -4 -4 -6 -7 -8 -8 -12 -18
-1 -2 -2 -3 -3 -3 -2 -2 -1 -0 -1 -2 -3 -5 -3 -3 -3 -2 -4 -3 -5 -4 -4 -5 -7 -7 -7 -6 -7 -6 -5 -5 -5 -6 -6 -7 -5 -4 -6 -8 -7 -8 -11 -15
Wind_Speed
16 15 13 14 15 13 8 2 1 8 21 2 2 2 3 9 8 3 4 2 9 7 7 6 3 6 2 9 9 7 3 5 4 2 0 2 2 7 6 4 4 2 3 6
13 12 11 11 13 11 12 3 4 12 10 1 2 1 3 2 3 4 4 5 4 3 5 5 3 5 1 6 5 7 6 1 4 3 4 2 4 5 4 4 3 5 5 5
11 11 10 8 11 11 11 2 2 5 13 8 3 6 1 1 2 0 5 3 5 4 3 4 4 4 2 3 3 6 6 3 6 9 6 6 5 5 5 6 4 4 6 4
11 10 9 7 9 9 7 3 3 3 4 4 3 3 5 1 3 4 5 4 4 4 4 3 5 3 4 3 4 3 3 4 3 2 5 4 5 6 9 7 5 6 3 6
12 10 9 7 7 8 4 3 1 1 1 2 4 2 1 3 1 2 2 3 1 2 4 2 5 6 2 3 3 2 2 2 3 1 3 4 1 2 7 4 3 4 3 4
13 10 10 7 5 6 4 3 3 1 3 1 3 3 5 5 7 6 1 14 8 5 7 7 13 12 11 6 5 3 2 5 3 2 3 2 4 8 7 4 4 6 5 3
13 9 10 7 5 5 5 4 4 2 2 0 3 4 3 6 1 6 2 2 4 10 20 16 16 20 18 14 8 5 4 3 3 2 2 2 2 3 4 5 3 3 6 4
14 11 11 8 6 4 3 3 4 3 2 2 2 5 5 8 11 5 4 4 7 17 7 4 6 5 6 6 7 8 5 4 3 4 3 3 2 3 6 5 2 3 4 4
13 11 12 10 8 6 5 1 2 1 5 3 5 4 3 4 4 3 3 7 10 5 3 3 5 5 4 2 4 5 5 5 3 2 3 5 2 1 3 4 1 2 4 4
14 12 12 11 10 8 7 4 4 1 4 3 6 3 5 6 5 4 2 4 4 2 2 3 3 2 3 5 8 5 2 2 4 2 2 5 5 3 3 4 4 5 7 6
14 13 14 12 11 9 9 7 5 4 3 5 3 3 4 5 5 4 7 5 2 3 3 3 3 3 3 3 4 5 6 5 3 3 2 6 0 2 5 6 9 10 5 3
14 14 15 13 11 9 9 9 8 7 3 5 7 8 7 5 4 8 10 1 3 6 4 1 3 2 1 3 3 1 2 5 4 7 4 2 3 9 14 10 10 4 2 1
14 13 13 15 12 10 10 10 11 9 7 7 6 5 5 5 5 5 5 4 5 4 4 4 3 3 3 4 4 2 1 3 3 2 2 3 10 12 8 4 3 2 4 4
15 13 13 13 14 11 11 10 11 7 6 4 3 5 4 4 4 2 2 6 9 11 5 3 3 3 3 3 2 3 3 4 4 1 1 3 8 4 5 6 6 5 5 5
16 14 13 14 15 11 10 10 9 8 3 4 4 6 4 2 6 3 6 11 12 5 3 3 2 3 4 2 2 3 6 6 4 4 7 5 6 6 3 3 1 3 6 9
17 15 13 13 16 15 12 5 6 9 10 5 2 2 3 5 8 10 10 10 7 5 4 2 3 3 3 3 2 4 5 3 3 6 12 6 5 6 2 2 5 8 11 12
19 18 16 14 16 17 7 3 6 13 9 4 3 1 1 9 8 6 7 7 6 4 4 2 3 3 3 3 4 4 2 9 5 7 9 8 7 2 4 6 8 10 12 12
21 18 17 17 16 14 7 4 9 13 8 4 3 1 1 2 3 3 3 4 4 4 3 2 2 4 2 3 6 5 7 9 7 6 4 4 1 5 9 8 10 12 12 11
23 21 19 16 12 9 8 10 12 10 5 7 3 4 3 4 3 3 4 3 2 2 1 0 2 1 4 4 6 9 10 3 6 5 3 5 8 5 6 10 13 15 12 9
26 26 8 7 11 14 14 6 3 3 2 3 2 7 3 6 2 3 3 4 2 1 0 3 1 3 11 11 7 5 8 10 5 5 8 7 3 6 9 11 12 12 9 7
26 8 4 19 22 8 3 4 3 2 2 6 6 5 5 3 3 2 2 2 1 2 2 2 2 3 4 3 8 15 18 15 11 4 4 2 7 10 12 11 11 11 10 10
18 11 19 19 5 4 4 3 2 3 5 5 5 6 8 6 4 4 1 2 1 4 4 2 3 4 5 3 10 14 14 14 12 7 5 7 9 11 12 13 12 11 11 12
29 8 8 5 3 3 8 10 4 4 7 13 10 5 7 6 5 5 2 3 3 7 1 3 4 3 4 11 11 12 12 10 7 2 5 9 12 13 14 14 13 13 13 13
6 7 6 5 5 6 5 5 4 6 12 24 21 7 4 5 3 3 4 2 3 3 3 6 3 9 11 14 11 9 6 6 7 5 6 10 13 15 16 16 14 14 15 14
5 6 5 7 3 3 4 8 11 10 28 29 15 8 5 2 4 2 4 4 4 5 5 3 9 17 19 13 8 4 5 7 10 12 13 13 16 17 19 17 16 15 15 16
4 4 4 3 4 2 5 7 9 22 29 25 8 4 3 2 4 4 6 7 7 4 3 11 21 21 14 5 4 3 5 9 12 15 16 17 18 19 20 19 18 17 17 17
4 2 6 10 4 7 9 11 14 31 26 3 3 5 6 4 2 2 3 5 4 7 13 21 19 12 7 4 5 6 8 10 13 14 17 19 19 20 22 21 18 16 16 17
Wind_Direction
291 296 302 320 320 335 322 294 81 159 145 211 209 290 337 156 159 337 270 114 106 145 128 145 148 169 162 195 146 161 171 125 129 182 242 154 149 170 157 141 221 211 160 276
282 285 292 321 322 332 341 354 108 168 182 237 152 71 61 324 228 243 191 135 163 139 125 132 178 115 99 154 159 162 173 44 98 52 6 3 195 192 152 117 99 194 151 266
276 277 279 311 318 321 336 285 125 147 218 263 215 138 226 177 288 49 56 108 122 105 102 42 127 101 58 121 109 108 112 135 159 190 196 147 180 182 174 151 152 178 220 280
278 264 267 289 310 307 322 249 250 148 202 239 157 100 141 170 91 71 33 66 58 142 119 91 103 111 127 65 114 92 130 126 121 92 134 141 184 182 177 185 175 179 228 197
269 256 259 273 304 302 272 254 274 127 15 88 107 356 117 127 90 90 333 84 299 95 115 62 151 134 118 162 78 85 18 128 120 80 50 76 174 197 177 197 211 246 214 266
256 250 249 260 280 290 236 247 241 346 323 81 105 200 164 163 129 46 11 133 106 66 338 33 87 90 84 100 132 120 95 130 112 204 41 45 307 218 189 181 196 157 195 195
247 242 238 245 254 270 238 236 210 135 254 67 197 147 100 143 163 136 110 69 131 145 129 95 80 66 68 57 37 53 114 88 71 150 68 197 206 317 162 136 77 120 91 102
244 235 231 229 238 231 214 226 223 184 142 190 57 91 113 98 71 64 77 30 113 146 110 71 55 358 10 12 27 19 45 118 115 157 197 295 38 184 143 162 62 29 106 103
237 233 221 216 226 210 208 187 218 193 128 226 134 114 142 133 108 67 52 94 117 108 84 89 146 179 167 197 3 15 43 66 105 90 144 218 181 191 79 94 205 354 122 87
231 227 211 212 213 207 199 189 170 165 103 127 153 140 170 133 100 97 135 156 130 84 95 99 137 178 152 160 168 174 97 35 151 148 216 286 246 241 92 123 200 130 118 118
223 222 208 210 206 209 191 190 181 170 117 124 135 128 143 136 144 144 160 108 348 54 81 122 178 139 196 109 151 173 163 142 176 99 116 264 241 87 166 148 135 138 126 52
215 217 213 201 198 210 193 181 168 151 136 139 124 108 106 116 133 140 160 123 148 156 97 121 114 126 109 146 201 37 199 180 175 180 217 247 63 125 124 131 142 162 347 301
207 209 208 205 198 204 193 180 167 145 119 118 139 121 128 114 115 130 133 172 157 148 127 148 150 124 139 152 233 200 218 167 150 121 186 146 132 125 129 137 139 190 233 234
197 198 200 199 187 190 191 184 176 162 128 115 133 156 158 172 159 131 133 154 141 133 121 103 129 122 189 181 158 169 203 149 158 286 176 119 183 162 169 196 226 236 249 261
192 192 195 192 176 176 177 184 173 171 142 119 118 122 81 123 171 141 140 150 144 114 74 62 105 114 116 48 56 245 190 178 169 213 178 135 160 175 190 200 265 290 308 295
186 184 182 177 165 163 144 145 168 147 127 118 95 110 62 102 147 150 137 140 121 99 93 93 94 111 113 104 213 261 237 202 210 179 145 122 144 143 103 335 317 309 302 291
180 172 159 157 157 167 173 175 172 164 121 95 87 45 101 128 134 116 95 106 90 89 95 89 135 135 126 133 198 230 219 187 153 138 142 122 140 146 316 304 296 293 286 278
169 157 150 156 160 164 147 126 144 141 134 105 112 87 42 145 75 78 88 93 88 63 108 134 122 117 143 248 236 231 131 137 137 137 123 118 348 316 305 299 304 307 312 307
154 149 144 149 163 158 141 139 152 148 123 131 132 146 193 149 84 96 75 70 77 66 86 102 124 134 224 217 198 211 204 174 142 148 188 293 299 300 305 312 318 315 308 294
151 147 147 148 151 144 128 108 135 149 211 145 134 131 127 145 110 64 85 32 76 108 47 144 165 248 250 230 230 212 188 177 165 279 262 274 268 313 319 315 305 296 280 265
153 158 120 141 139 128 106 101 135 168 331 195 171 140 124 128 115 119 75 138 57 144 241 181 255 275 252 307 223 226 224 224 257 190 146 2 333 318 304 294 286 274 264 254
160 149 131 136 145 100 111 172 126 208 215 182 146 137 121 121 116 93 109 117 82 208 157 158 249 251 208 130 121 126 133 140 138 110 29 339 312 304 299 293 283 276 263 253
141 120 151 148 151 147 187 182 193 193 174 174 154 127 126 112 96 88 104 137 181 134 140 234 226 198 162 165 145 134 134 141 147 139 339 323 314 310 305 297 285 277 264 249
142 148 133 194 191 220 189 188 170 165 158 144 136 102 117 123 101 139 135 104 148 170 221 236 242 200 174 152 142 140 156 190 215 241 280 305 311 309 302 293 281 268 259 247
161 150 193 202 194 68 136 131 127 126 148 142 115 79 100 90 114 139 117 160 208 210 225 226 177 153 142 134 137 170 224 253 266 276 281 293 299 299 298 293 281 269 255 248
184 185 104 124 105 130 161 162 140 144 146 139 95 109 97 142 154 160 185 168 213 230 207 175 151 148 142 102 27 342 277 273 276 278 277 279 288 296 296 287 276 268 261 258
192 182 198 177 148 156 157 159 161 159 158 122 127 117 180 113 136 224 195 204 212 187 167 168 159 155 173 235 276 265 259 267 269 268 274 277 280 287 288 282 277 267 261 260
Height
1420 1417 1416 1413 1411 1408 1406 1404 1406 1407 1408 1410 1406 1404 1400 1401 1405 1406 1406 1406 1410 1415 1419 1428 1427 1434 1433 1434 1436 1444 1444 1461 1474 1469 1465 1466 1468 1475 1480 1494 1494 1503 1504 1486
1415 1413 1412 1410 1408 1406 1405 1404 1406 1410 1410 1406 1405 1406 1406 1404 1406 1405 1403 1404 1407 1410 1417 1429 1430 1430 1432 1432 1436 1439 1442 1459 1477 1473 1472 1469 1469 1470 1473 1480 1486 1495 1497 1482
1410 1409 1409 1408 1407 1404 1405 1404 1407 1410 1411 1406 1401 1404 1406 1403 1404 1403 1402 1405 1407 1412 1418 1418 1427 1430 1431 1433 1433 1434 1439 1453 1458 1462 1462 1464 1469 1467 1469 1472 1488 1487 1485 1471
1406 1405 1405 1406 1405 1403 1404 1402 1400 1399 1406 1401 1398 1399 1403 1403 1404 1404 1404 1407 1408 1411 1419 1421 1428 1429 1433 1434 1434 1437 1440 1449 1451 1453 1454 1455 1457 1460 1466 1470 1470 1475 1467 1473
1402 1402 1402 1403 1402 1401 1402 1401 1400 1397 1397 1396 1397 1399 1403 1404 1406 1404 1408 1407 1412 1411 1415 1420 1425 1425 1427 1429 1435 1438 1441 1454 1450 1457 1455 1454 1455 1456 1462 1464 1464 1468 1467 1468
1398 1399 1399 1400 1399 1399 1398 1398 1398 1398 1400 1399 1400 1400 1402 1404 1405 1410 1410 1414 1418 1420 1415 1415 1419 1422 1426 1429 1434 1440 1443 1449 1455 1457 1459 1456 1462 1456 1459 1460 1459 1459 1466 1460
1395 1395 1395 1397 1397 1397 1396 1396 1397 1397 1401 1401 1399 1399 1401 1404 1404 1407 1413 1413 1416 1426 1424 1424 1427 1428 1431 1433 1438 1436 1445 1450 1458 1464 1461 1470 1449 1447 1448 1453 1456 1456 1458 1460
1391 1392 1393 1394 1394 1395 1395 1395 1396 1395 1402 1400 1401 1400 1403 1406 1407 1411 1413 1415 1417 1420 1422 1429 1437 1443 1437 1440 1443 1442 1441 1451 1464 1462 1465 1455 1449 1446 1451 1449 1460 1457 1458 1460
1387 1388 1390 1391 1392 1393 1394 1394 1394 1395 1396 1400 1399 1402 1404 1407 1412 1417 1418 1418 1418 1420 1426 1433 1440 1447 1441 1449 1448 1446 1446 1448 1452 1474 1468 1457 1446 1443 1443 1445 1463 1458 1458 1460
1383 1384 1386 1388 1390 1391 1393 1393 1393 1394 1394 1398 1400 1401 1404 1405 1409 1416 1419 1420 1422 1423 1429 1438 1448 1443 1441 1449 1451 1455 1456 1458 1459 1463 1463 1455 1444 1443 1445 1457 1461 1457 1458 1460
1380 1381 1383 1386 1388 1390 1391 1392 1393 1394 1395 1398 1399 1400 1401 1404 1406 1411 1416 1420 1422 1425 1430 1434 1439 1440 1441 1443 1447 1449 1451 1461 1461 1466 1465 1458 1442 1444 1450 1452 1454 1456 1457 1457
1376 1377 1380 1383 1386 1388 1390 1392 1393 1394 1396 1399 1400 1401 1402 1403 1405 1407 1412 1414 1414 1416 1428 1435 1439 1441 1446 1445 1445 1444 1447 1444 1448 1451 1451 1444 1443 1444 1447 1450 1452 1454 1455 1456
1373 1375 1377 1379 1383 1385 1388 1389 1391 1393 1396 1401 1402 1403 1404 1405 1406 1407 1409 1413 1413 1414 1415 1423 1430 1433 1441 1445 1446 1441 1439 1440 1443 1444 1445 1444 1444 1446 1448 1450 1452 1453 1454 1455
1370 1372 1374 1377 1380 1384 1386 1388 1389 1391 1393 1398 1405 1404 1405 1406 1407 1408 1409 1409 1412 1415 1417 1420 1425 1429 1433 1440 1438 1441 1439 1439 1441 1444 1443 1445 1445 1447 1448 1450 1451 1452 1452 1452
1367 1370 1372 1375 1378 1382 1386 1388 1389 1390 1394 1398 1403 1404 1406 1406 1408 1409 1410 1411 1412 1415 1418 1421 1426 1427 1431 1438 1440 1441 1434 1435 1440 1440 1436 1439 1444 1446 1446 1448 1448 1449 1448 1449
1365 1368 1371 1373 1377 1381 1385 1388 1390 1390 1391 1395 1405 1407 1407 1407 1408 1409 1410 1411 1413 1414 1418 1423 1425 1426 1430 1440 1445 1431 1430 1431 1432 1432 1436 1438 1441 1443 1444 1445 1445 1445 1446 1446
1363 1367 1370 1374 1377 1380 1384 1385 1386 1389 1391 1394 1404 1406 1408 1408 1409 1410 1412 1413 1414 1416 1421 1423 1425 1427 1429 1435 1438 1426 1427 1429 1431 1433 1435 1438 1440 1442 1442 1443 1444 1444 1444 1443
1361 1366 1370 1375 1378 1381 1384 1385 1386 1389 1392 1396 1404 1408 1410 1409 1409 1411 1413 1415 1417 1420 1423 1425 1425 1427 1428 1429 1424 1425 1426 1427 1429 1431 1433 1435 1438 1439 1440 1441 1440 1439 1438 1437
1362 1367 1371 1377 1380 1382 1384 1387 1389 1390 1395 1396 1401 1405 1409 1410 1411 1413 1415 1416 1420 1423 1424 1425 1426 1428 1428 1420 1421 1422 1424 1426 1428 1431 1433 1435 1436 1437 1437 1437 1435 1434 1434 1435
1363 1368 1371 1376 1379 1382 1385 1391 1392 1393 1393 1394 1397 1400 1406 1409 1411 1416 1419 1420 1424 1426 1427 1426 1426 1421 1416 1418 1419 1420 1422 1424 1427 1430 1432 1434 1434 1435 1434 1434 1434 1433 1434 1434
1361 1365 1370 1375 1379 1383 1386 1389 1392 1394 1395 1392 1393 1396 1401 1408 1411 1416 1419 1423 1426 1428 1430 1428 1428 1425 1413 1411 1412 1414 1419 1422 1426 1428 1431 1432 1432 1433 1432 1432 1432 1431 1431 1431
1356 1361 1369 1376 1378 1381 1387 1389 1392 1391 1391 1389 1390 1394 1398 1406 1410 1415 1421 1423 1427 1426 1428 1429 1428 1415 1410 1411 1411 1413 1416 1420 1424 1427 1429 1430 1431 1431 1430 1429 1429 1429 1428 1428
1355 1361 1367 1371 1377 1380 1380 1383 1383 1382 1379 1381 1385 1392 1397 1405 1410 1416 1420 1424 1424 1426 1428 1424 1417 1407 1408 1410 1412 1414 1417 1420 1423 1425 1426 1427 1428 1427 1426 1426 1425 1425 1425 1425
1351 1355 1362 1364 1367 1364 1361 1363 1362 1363 1368 1374 1382 1390 1395 1403 1409 1414 1417 1424 1425 1428 1434 1424 1407 1404 1407 1410 1412 1415 1418 1420 1421 1422 1423 1423 1423 1423 1422 1422 1422 1421 1421 1422
1347 1350 1351 1354 1355 1356 1356 1358 1360 1362 1368 1373 1382 1391 1396 1402 1407 1409 1415 1421 1419 1417 1417 1405 1398 1403 1406 1409 1412 1414 1416 1417 1417 1418 1418 1418 1418 1418 1417 1417 1416 1416 1416 1416
1344 1346 1349 1351 1354 1358 1359 1360 1359 1362 1367 1374 1379 1391 1398 1401 1402 1403 1403 1411 1413 1402 1397 1393 1396 1401 1404 1406 1408 1410 1411 1412 1414 1414 1414 1414 1414 1413 1412 1411 1411 1411 1412 1412
1341 1343 1343 1346 1347 1350 1355 1358 1360 1364 1368 1373 1379 1391 1395 1397 1402 1405 1400 1397 1388 1382 1386 1392 1397 1400 1403 1405 1407 1407 1408 1409 1409 1409 1409 1409 1408 1408 1407 1406 1406 1406 1406 1407